Location: Azul
(36.7830°S, 59.8500°W)
Time: 23:49:27
(UTC-03:00)

NOAA 15 - Pass Details

Date: 28 October 2021
Orbit: 797 x 813 km, 98.7° (Epoch: 30 November)

Event Time Altitude Azimuth Distance (km) Brightness Sun altitude
Rises 21:21:31 0° 176° (S) 3,343 8.3 -20.9°
Reaches altitude 10° 21:23:59 10° 182° (S) 2,407 7.6 -21.3°
Maximum altitude 21:28:55 40° 250° (WSW) 1,175 5.9 -22.1°
Drops below altitude 10° 21:33:50 10° 319° (NW) 2,389 7.1 -22.9°
Sets 21:36:16 0° 326° (NW) 3,314 7.7 -23.2°
